Tracking 28790 objects as of 19-Apr-2024
HD Live streaming from Space Station
objects crossing your sky now

STARLINK-4559

Track STARLINK-4559 now!
10-day predictions
STARLINK-4559 is classified as:


NORAD ID: 53574
Int'l Code: 2022-101AZ
Perigee: 545.8 km
Apogee: 548.0 km
Inclination: 53.2 °
Period: 95.4 minutes
Semi major axis: 6917 km
RCS: Unknown
Launch date: August 19, 2022
Source: United States (US)
Launch site: AIR FORCE EASTERN TEST RANGE (AFETR)
Your satellite tracking list
Your tracking list is empty




NASA's NSSDC Master Catalog

Two Line Element Set (TLE):
1 53574U 22101AZ  24109.76221154  .00001786  00000-0  13025-3 0  9990
2 53574  53.2163 271.0354 0001562  72.5377 287.5786 15.08841171 92294
Source of the keplerian elements: AFSPC